TimeCDT,TemperatureF,Dew PointF,Humidity,Sea Level PressureIn,VisibilityMPH,Wind Direction,Wind SpeedMPH,Gust SpeedMPH,PrecipitationIn,Events,Conditions,WindDirDegrees,DateUTC
12:15 AM,30.2,24.1,78,29.90,10.0,NW,5.8,-,N/A,,Clear,310,2012-10-31 05:15:00
12:35 AM,30.0,23.9,78,29.90,10.0,WNW,6.9,-,N/A,,Clear,300,2012-10-31 05:35:00
12:55 AM,29.8,24.3,80,29.91,10.0,WNW,8.1,-,N/A,,Clear,300,2012-10-31 05:55:00
1:15 AM,30.9,24.8,78,29.91,10.0,NW,6.9,-,N/A,,Clear,310,2012-10-31 06:15:00
1:35 AM,31.8,25.2,76,29.91,10.0,NW,9.2,-,N/A,,Clear,310,2012-10-31 06:35:00
1:55 AM,31.1,25.2,79,29.91,10.0,NW,8.1,-,N/A,,Clear,320,2012-10-31 06:55:00
2:15 AM,31.8,25.3,77,29.91,10.0,NW,8.1,-,N/A,,Clear,310,2012-10-31 07:15:00
2:35 AM,31.3,25.2,78,29.91,10.0,NW,8.1,-,N/A,,Clear,310,2012-10-31 07:35:00
2:55 AM,30.4,24.8,80,29.92,10.0,WNW,9.2,-,N/A,,Clear,300,2012-10-31 07:55:00
3:15 AM,30.0,24.8,81,29.92,10.0,NW,8.1,-,N/A,,Clear,310,2012-10-31 08:15:00
3:35 AM,30.0,24.8,81,29.92,10.0,NW,8.1,-,N/A,,Clear,310,2012-10-31 08:35:00
3:55 AM,29.3,24.4,82,29.91,10.0,WNW,6.9,-,N/A,,Clear,300,2012-10-31 08:55:00
4:15 AM,30.2,24.8,80,29.91,10.0,NW,8.1,-,N/A,,Clear,310,2012-10-31 09:15:00
4:35 AM,28.8,24.3,83,29.91,10.0,NW,8.1,-,N/A,,Clear,310,2012-10-31 09:35:00
4:55 AM,28.4,24.1,84,29.92,10.0,NW,6.9,-,N/A,,Clear,310,2012-10-31 09:55:00
5:15 AM,28.0,23.9,84,29.92,10.0,NW,6.9,-,N/A,,Clear,310,2012-10-31 10:15:00
5:35 AM,27.9,23.9,85,29.92,10.0,NW,8.1,-,N/A,,Clear,310,2012-10-31 10:35:00
5:55 AM,27.3,23.5,86,29.92,10.0,NW,6.9,-,N/A,,Clear,320,2012-10-31 10:55:00
6:15 AM,26.6,23.0,86,29.92,10.0,NW,6.9,-,N/A,,Clear,320,2012-10-31 11:15:00
6:35 AM,26.4,23.0,87,29.92,10.0,NW,5.8,-,N/A,,Clear,320,2012-10-31 11:35:00
6:55 AM,25.7,22.5,88,29.93,10.0,NW,5.8,-,N/A,,Clear,310,2012-10-31 11:55:00
7:15 AM,25.7,22.6,88,29.93,10.0,NW,8.1,-,N/A,,Clear,310,2012-10-31 12:15:00
7:35 AM,25.5,22.3,88,29.93,10.0,WNW,8.1,-,N/A,,Clear,300,2012-10-31 12:35:00
7:55 AM,26.1,23.0,88,29.94,10.0,NW,5.8,-,N/A,,Clear,310,2012-10-31 12:55:00
8:15 AM,26.8,23.5,88,29.94,10.0,NW,8.1,-,N/A,,Clear,310,2012-10-31 13:15:00
8:35 AM,28.6,24.6,85,29.94,10.0,WNW,11.5,-,N/A,,Clear,300,2012-10-31 13:35:00
8:55 AM,30.4,25.2,81,29.95,10.0,NW,12.7,16.1,N/A,,Clear,310,2012-10-31 13:55:00
9:15 AM,31.6,25.5,78,29.94,10.0,NW,11.5,-,N/A,,Clear,320,2012-10-31 14:15:00
9:35 AM,32.0,25.5,77,29.94,10.0,NW,11.5,-,N/A,,Clear,320,2012-10-31 14:35:00
9:55 AM,33.3,26.4,76,29.95,10.0,NW,11.5,-,N/A,,Clear,310,2012-10-31 14:55:00
10:15 AM,35.6,27.0,71,29.95,10.0,NW,12.7,-,N/A,,Clear,320,2012-10-31 15:15:00
10:35 AM,36.7,27.1,68,29.95,10.0,NNW,9.2,-,N/A,,Clear,340,2012-10-31 15:35:00
10:55 AM,38.3,27.5,65,29.95,10.0,WNW,10.4,-,N/A,,Clear,290,2012-10-31 15:55:00
11:15 AM,39.2,27.1,62,29.95,10.0,NW,9.2,-,N/A,,Clear,320,2012-10-31 16:15:00
11:35 AM,40.1,26.6,59,29.95,10.0,NW,8.1,-,N/A,,Clear,310,2012-10-31 16:35:00
11:55 AM,41.9,25.0,51,29.94,10.0,NNW,11.5,-,N/A,,Clear,330,2012-10-31 16:55:00
12:15 PM,43.2,23.5,46,29.94,10.0,NW,11.5,18.4,N/A,,Clear,310,2012-10-31 17:15:00
12:35 PM,44.8,22.1,41,29.94,10.0,WNW,12.7,21.9,N/A,,Clear,300,2012-10-31 17:35:00
12:55 PM,45.7,20.5,37,29.93,10.0,WNW,12.7,19.6,N/A,,Clear,300,2012-10-31 17:55:00
1:15 PM,46.9,20.7,35,29.93,10.0,WNW,12.7,19.6,N/A,,Clear,290,2012-10-31 18:15:00
1:35 PM,48.2,19.4,32,29.92,10.0,WNW,16.1,20.7,N/A,,Clear,290,2012-10-31 18:35:00
1:55 PM,48.6,19.0,31,29.92,10.0,NW,10.4,18.4,N/A,,Clear,310,2012-10-31 18:55:00
2:15 PM,49.3,19.6,31,29.91,10.0,WNW,18.4,24.2,N/A,,Clear,290,2012-10-31 19:15:00
2:35 PM,49.5,18.1,29,29.91,10.0,WNW,17.3,24.2,N/A,,Clear,300,2012-10-31 19:35:00
2:55 PM,50.0,18.0,28,29.90,10.0,WNW,18.4,21.9,N/A,,Clear,290,2012-10-31 19:55:00
3:15 PM,50.2,16.9,27,29.90,10.0,NW,13.8,21.9,N/A,,Clear,320,2012-10-31 20:15:00
3:35 PM,50.5,16.9,26,29.90,10.0,WNW,13.8,23.0,N/A,,Clear,300,2012-10-31 20:35:00
3:55 PM,50.4,16.2,26,29.90,10.0,NW,10.4,19.6,N/A,,Clear,310,2012-10-31 20:55:00
4:15 PM,50.0,16.5,26,29.90,10.0,WNW,17.3,21.9,N/A,,Clear,300,2012-10-31 21:15:00
4:35 PM,50.0,17.4,28,29.90,10.0,WNW,16.1,20.7,N/A,,Clear,300,2012-10-31 21:35:00
4:55 PM,49.1,18.1,29,29.91,10.0,WNW,12.7,-,N/A,,Clear,300,2012-10-31 21:55:00
5:15 PM,48.0,18.3,31,29.91,10.0,WNW,15.0,-,N/A,,Clear,290,2012-10-31 22:15:00
5:35 PM,46.6,18.7,33,29.91,10.0,WNW,9.2,20.7,N/A,,Clear,300,2012-10-31 22:35:00
5:55 PM,45.0,18.9,35,29.92,10.0,NW,10.4,-,N/A,,Clear,310,2012-10-31 22:55:00
6:15 PM,43.5,19.6,38,29.92,10.0,WNW,8.1,-,N/A,,Clear,300,2012-10-31 23:15:00
6:35 PM,41.5,20.1,42,29.93,10.0,WNW,6.9,-,N/A,,Clear,300,2012-10-31 23:35:00
6:55 PM,39.2,21.2,49,29.93,10.0,WNW,5.8,-,N/A,,Clear,300,2012-10-31 23:55:00
7:15 PM,37.6,21.2,52,29.94,10.0,WNW,6.9,-,N/A,,Clear,300,2012-11-01 00:15:00
7:35 PM,36.5,20.7,53,29.94,10.0,WNW,8.1,-,N/A,,Clear,300,2012-11-01 00:35:00
7:55 PM,36.5,21.0,54,29.94,10.0,WNW,8.1,-,N/A,,Clear,300,2012-11-01 00:55:00
8:15 PM,34.7,20.8,57,29.94,10.0,WNW,5.8,-,N/A,,Clear,290,2012-11-01 01:15:00
8:35 PM,34.7,20.5,56,29.94,10.0,WNW,4.6,-,N/A,,Clear,290,2012-11-01 01:35:00
8:55 PM,35.6,21.2,56,29.94,10.0,WNW,4.6,-,N/A,,Clear,290,2012-11-01 01:55:00
9:15 PM,34.0,21.0,59,29.94,10.0,WNW,4.6,-,N/A,,Clear,290,2012-11-01 02:15:00
9:35 PM,33.1,21.2,62,29.94,10.0,WNW,4.6,-,N/A,,Clear,290,2012-11-01 02:35:00
9:55 PM,32.0,21.2,64,29.94,10.0,WNW,4.6,-,N/A,,Clear,290,2012-11-01 02:55:00
10:15 PM,32.0,21.6,65,29.94,10.0,WNW,4.6,-,N/A,,Clear,290,2012-11-01 03:15:00
10:35 PM,32.2,21.2,64,29.94,10.0,WNW,3.5,-,N/A,,Clear,290,2012-11-01 03:35:00
10:55 PM,32.4,21.2,63,29.94,10.0,WNW,4.6,-,N/A,,Clear,290,2012-11-01 03:55:00
11:15 PM,32.4,21.4,64,29.94,10.0,WNW,5.8,-,N/A,,Clear,290,2012-11-01 04:15:00
11:35 PM,32.0,20.8,63,29.94,10.0,WNW,4.6,-,N/A,,Clear,300,2012-11-01 04:35:00
11:55 PM,32.0,20.5,63,29.94,10.0,WNW,3.5,-,N/A,,Clear,290,2012-11-01 04:55:00